Weather in Mangaliya

Romania     43°48′38″N   28°34′54″E
temp.,
°C
wind,
m/s
gust,
m/s
humid.,
%
clouds,
%
prec.,
mm/h
press.,
hPa
HPBL,
m
19 april, mon
mon1900:00+8n3582100 0.0 1017222
03:00+6nnw348810 0.0 101777
06:00+5nnw238624 0.0 101653
09:00+9n34707 0.0 1016380
12:00+12ene446593 0.0 1015840
15:00+12e5566100 0.0 1013622
18:00+9e4579100 0.1 1012289
21:00+8ene2497100 5.6 1011276
20 april, tue
tue2000:00+8n3597100 8.9 1010267
03:00+8nw3496100 11.4 1009206
06:00+8wnw3595100 1.2 1009256
09:00+8w4793100 1.6 1010385
12:00+10wnw358695 0.6 1011319
15:00+12nnw3474100 1.4 1012655
18:00+13se127088 0.4 1012347
21:00+10w4788100 1.6 1014153
21 april, wed
wed2100:00+9w41087100 0.1 1014228
03:00+9w51185100 0.1 1015246
06:00+8wsw41084100 0.0 1015225
09:00+11wsw51074100 0.0 1017590
12:00+15w795649 0.1 10171416
15:00+14wsw6865100 1.7 1017929
18:00+14sw58665 0.4 1017480
21:00+9ssw58895 0.9 1018122
22 april, thu
thu2200:00+9sw45845 0.0 101969
03:00+9w34775 0.0 101959
06:00+8w47805 0.0 1019100
09:00+13w34675 0.0 1020220
12:00+17s345011 0.0 10201663
15:00+17s675163 0.0 10201308
18:00+15s610642 0.0 1020312
21:00+11ssw51171100 0.0 1020183
23 april, fri
fri2300:00+11ssw51173100 0.0 1020194
03:00+10ssw4108283 0.0 1019183
06:00+9ssw48907 0.0 1018128
09:00+13s5874100 0.0 1018278
12:00+16s6762100 0.0 1018596
15:00+16sse6857100 0.0 1017594
18:00+14s4769100 0.0 1016274
21:00+11s367671 0.0 1016104